Location: Bottens
(46.6171°N, 6.6605°E)
Time: 11:16:44
(UTC+00:00)

Cosmos 1825 - Pass Details

Date: 30 October 2021
Orbit: 501 x 504 km, 82.5° (Epoch: 29 November)

Event Time Altitude Azimuth Distance (km) Brightness Sun altitude
Rises 19:12:51 0° 331° (NNW) 2,609 6.3 -29.9°
Reaches altitude 10° 19:16:02 10° 301° (WNW) 1,718 5.6 -30.5°
Maximum altitude 19:17:39 12° 276° (W) 1,564 5.5 -30.7°
Drops below altitude 10° 19:19:16 10° 250° (WSW) 1,712 5.5 -31.0°
Sets 19:22:25 0° 220° (SW) 2,590 6.1 -31.5°
